Temp
10 10 10 10 10 10 10 10 10 10 10 10 10 10 10 10 10 10 10 10 10 10 10 10 10 10 10 10 10 10 10 10 10 10 10 10 10 10 10 10 10 10
11 11 10 10 10 10 10 10 10 10 10 10 10 10 10 10 10 10 10 10 10 10 10 10 10 10 10 10 10 10 10 10 10 10 10 10 10 10 10 10 10 10
10 11 11 11 10 10 10 10 10 10 10 10 10 10 10 10 10 10 10 10 10 10 10 10 10 10 10 10 10 10 10 10 10 10 10 10 10 10 10 10 10 10
10 10 10 11 10 10 10 10 10 10 10 10 10 10 10 10 10 10 10 10 10 10 10 10 10 10 10 10 10 10 10 10 10 10 10 10 10 10 10 10 10 10
10 10 10 10 10 11 11 11 10 10 10 10 10 10 10 10 10 10 10 10 10 10 10 10 10 10 10 10 10 10 10 10 10 10 10 10 10 10 10 10 10 10
10 10 10 10 10 10 11 11 11 10 10 10 10 11 11 11 11 10 10 10 10 10 10 10 10 10 10 10 10 10 10 10 10 10 10 10 10 10 10 10 10 10
10 10 10 10 10 10 10 10 10 10 10 10 10 10 10 11 11 11 11 10 10 10 10 11 10 10 10 10 10 10 10 10 10 10 10 10 10 10 10 10 10 10
10 10 10 10 10 10 10 10 10 10 10 10 10 10 10 10 10 11 11 11 11 10 10 10 11 11 10 10 10 10 10 10 10 10 10 10 10 10 10 10 10 10
10 10 10 10 10 11 10 10 10 10 10 10 10 10 10 10 10 10 10 11 11 11 10 10 10 11 11 11 10 10 10 10 10 10 10 10 10 10 10 10 10 10
10 10 10 10 10 10 10 10 10 10 10 10 10 10 10 10 10 10 10 10 10 10 10 10 10 10 11 11 11 10 10 10 10 10 10 10 10 10 10 10 10 10
10 10 10 10 10 10 10 10 10 10 10 10 10 10 10 10 10 10 10 10 10 10 10 10 10 10 11 11 11 11 10 10 10 10 10 10 10 10 10 10 10 10
10 10 10 10 10 10 10 10 10 10 10 10 10 10 10 10 10 10 10 10 10 10 10 10 10 10 10 11 11 11 10 10 10 10 10 10 10 10 10 10 10 10
10 10 10 10 10 10 10 10 10 10 10 10 10 10 10 10 10 10 10 10 10 10 10 10 10 10 10 10 10 10 11 11 11 11 10 10 10 10 10 10 10 10
10 10 10 10 10 9 10 10 10 10 10 10 10 10 10 10 10 10 10 10 10 10 10 10 10 10 10 10 10 10 10 10 10 10 10 10 10 10 10 10 9 9
10 10 10 10 9 9 10 10 10 10 10 10 9 9 9 9 10 10 10 10 10 10 10 10 10 10 10 10 10 10 10 10 10 10 10 10 10 10 10 9 9 9
9 9 10 9 9 10 10 10 10 10 10 10 10 10 10 10 10 10 10 10 10 10 10 10 10 10 10 10 10 10 10 10 10 10 10 10 10 10 10 10 9 9
9 9 9 9 9 10 10 10 10 10 10 10 10 10 10 10 10 10 10 10 10 10 10 10 10 10 10 10 10 10 10 10 10 10 10 10 10 10 10 10 10 10
9 9 9 9 9 10 10 10 10 10 10 10 10 10 10 10 10 10 10 10 10 10 10 10 10 10 10 10 10 10 10 10 10 10 10 10 10 10 10 9 9 9
9 8 9 9 9 9 9 9 10 10 10 10 10 10 10 10 10 10 10 11 10 10 10 10 9 9 10 10 10 10 10 10 10 10 10 10 10 10 10 9 9 9
8 8 8 8 9 9 9 9 9 9 10 10 10 10 10 10 10 10 10 10 10 9 9 9 10 10 10 10 10 10 10 10 10 10 9 10 10 9 9 9 9 9
8 8 8 8 8 9 9 9 9 10 10 10 10 10 10 10 10 10 10 10 10 9 9 9 10 10 10 10 10 10 10 9 9 9 9 9 9 9 9 9 9 9
8 8 8 8 8 9 9 9 10 10 10 10 10 10 10 10 10 10 10 10 9 10 10 10 10 10 10 10 10 10 9 9 9 9 9 9 9 9 9 9 9 9
8 8 8 8 8 9 9 9 9 10 10 10 9 10 10 10 9 9 9 9 9 9 10 10 10 10 10 10 10 10 9 9 9 9 9 9 9 9 9 9 9 9
8 8 8 8 9 9 9 9 9 10 10 9 9 9 9 9 9 9 9 9 9 9 9 10 10 10 11 10 10 10 9 9 9 9 9 8 9 9 9 8 8 9
8 8 9 9 9 9 9 9 9 9 10 9 9 9 9 9 9 9 9 9 9 9 9 10 10 10 10 10 10 9 9 9 9 9 9 9 8 8 8 8 8 8
8 8 9 9 9 9 9 9 9 9 9 9 9 9 9 9 9 9 9 9 9 9 9 9 9 9 10 9 9 9 9 9 9 9 9 9 8 8 8 8 8 8
Height
3210 3211 3212 3213 3214 3215 3216 3217 3218 3219 3220 3221 3222 3223 3224 3225 3226 3226 3227 3228 3229 3230 3231 3232 3233 3234 3234 3235 3235 3236 3237 3237 3237 3238 3238 3238 3239 3239 3239 3239 3239 3239
3210 3211 3212 3213 3214 3215 3216 3217 3217 3218 3220 3221 3222 3223 3223 3224 3225 3226 3227 3228 3229 3229 3230 3231 3232 3233 3233 3234 3234 3235 3235 3236 3236 3236 3237 3237 3238 3238 3238 3238 3238 3238
3210 3211 3211 3212 3213 3214 3215 3216 3217 3218 3219 3220 3221 3222 3223 3224 3225 3226 3226 3227 3228 3229 3230 3230 3231 3232 3232 3233 3233 3234 3234 3234 3235 3235 3236 3236 3236 3237 3237 3237 3237 3237
3210 3211 3211 3212 3213 3214 3215 3216 3217 3218 3219 3220 3221 3222 3222 3223 3224 3225 3226 3226 3227 3228 3229 3229 3230 3231 3231 3231 3232 3232 3232 3233 3233 3233 3234 3235 3235 3235 3236 3236 3236 3235
3209 3210 3211 3212 3212 3213 3214 3215 3216 3217 3218 3219 3220 3221 3222 3223 3223 3224 3225 3225 3226 3227 3227 3228 3229 3229 3230 3230 3231 3231 3231 3231 3232 3232 3233 3233 3234 3234 3234 3234 3234 3234
3208 3209 3210 3211 3212 3212 3213 3214 3215 3216 3217 3218 3219 3220 3221 3222 3223 3223 3224 3224 3225 3225 3226 3227 3227 3228 3228 3229 3229 3230 3230 3230 3230 3231 3231 3232 3232 3232 3232 3232 3233 3233
3207 3208 3209 3210 3211 3212 3213 3213 3214 3215 3216 3217 3218 3219 3220 3220 3221 3222 3223 3223 3224 3224 3224 3225 3226 3226 3227 3227 3228 3228 3229 3229 3229 3229 3230 3230 3230 3230 3231 3231 3231 3231
3205 3206 3207 3207 3208 3209 3210 3211 3212 3213 3214 3215 3216 3217 3218 3219 3219 3220 3220 3221 3222 3223 3223 3223 3224 3225 3225 3226 3226 3227 3227 3227 3228 3228 3228 3229 3229 3229 3229 3229 3229 3229
3203 3204 3204 3205 3206 3207 3208 3209 3209 3210 3211 3212 3213 3215 3216 3217 3218 3218 3218 3219 3220 3220 3221 3221 3222 3222 3223 3224 3224 3225 3225 3226 3226 3226 3226 3226 3227 3227 3227 3227 3227 3227
3201 3202 3203 3205 3207 3208 3209 3209 3210 3210 3210 3211 3211 3211 3212 3214 3215 3216 3217 3217 3217 3218 3218 3219 3220 3220 3221 3222 3222 3223 3223 3224 3224 3224 3224 3224 3224 3225 3225 3225 3225 3225
3200 3200 3201 3204 3206 3207 3207 3208 3209 3210 3210 3210 3210 3211 3212 3212 3212 3213 3214 3215 3216 3216 3216 3216 3217 3218 3218 3219 3220 3220 3221 3221 3221 3221 3222 3222 3222 3222 3222 3222 3223 3223
3198 3198 3199 3201 3203 3204 3204 3205 3206 3207 3208 3208 3209 3210 3211 3211 3211 3211 3211 3212 3212 3212 3213 3214 3214 3215 3216 3216 3217 3218 3218 3219 3219 3219 3219 3219 3219 3219 3219 3219 3219 3219
3195 3196 3197 3199 3200 3200 3202 3203 3204 3205 3205 3205 3206 3207 3209 3209 3209 3210 3211 3211 3209 3207 3207 3210 3212 3212 3213 3214 3215 3216 3216 3217 3217 3217 3217 3217 3217 3216 3216 3216 3216 3216
3193 3194 3195 3196 3197 3198 3199 3201 3203 3203 3202 3202 3203 3204 3205 3206 3207 3209 3210 3209 3208 3205 3203 3204 3208 3210 3210 3212 3213 3213 3214 3215 3215 3215 3215 3215 3215 3214 3215 3216 3216 3215
3190 3191 3192 3193 3194 3195 3197 3199 3200 3201 3201 3201 3202 3202 3202 3203 3205 3207 3207 3207 3207 3205 3202 3201 3204 3207 3208 3209 3210 3211 3212 3212 3213 3213 3212 3212 3213 3213 3213 3214 3214 3214
3186 3188 3189 3190 3192 3193 3194 3196 3197 3198 3199 3199 3200 3200 3201 3201 3202 3202 3203 3204 3204 3205 3203 3201 3201 3203 3205 3206 3207 3208 3208 3209 3209 3210 3210 3210 3211 3211 3211 3212 3212 3212
3182 3184 3185 3187 3189 3190 3191 3192 3194 3195 3195 3196 3197 3198 3199 3200 3200 3199 3199 3200 3201 3201 3202 3202 3200 3201 3203 3203 3204 3204 3205 3205 3206 3206 3207 3208 3208 3209 3209 3210 3210 3209
3177 3180 3181 3183 3185 3186 3188 3189 3190 3191 3192 3193 3193 3194 3195 3196 3197 3197 3196 3196 3197 3198 3199 3199 3199 3199 3200 3200 3201 3201 3202 3202 3203 3203 3204 3204 3205 3205 3206 3206 3206 3207
3173 3176 3178 3180 3182 3183 3184 3186 3187 3188 3188 3189 3190 3190 3191 3192 3193 3193 3193 3193 3193 3193 3193 3194 3195 3196 3197 3197 3197 3198 3198 3199 3199 3201 3201 3201 3202 3202 3202 3202 3202 3203
3170 3172 3174 3176 3178 3180 3181 3182 3184 3184 3185 3185 3186 3186 3187 3187 3188 3189 3189 3190 3188 3187 3187 3189 3191 3193 3194 3194 3194 3195 3195 3195 3195 3197 3198 3198 3199 3199 3199 3199 3199 3199
3167 3169 3170 3172 3174 3176 3178 3179 3180 3181 3181 3181 3181 3181 3182 3182 3183 3183 3184 3184 3183 3182 3185 3187 3188 3189 3190 3191 3191 3192 3192 3192 3191 3192 3194 3195 3195 3195 3195 3195 3195 3195
3165 3167 3169 3171 3173 3174 3176 3177 3177 3177 3177 3177 3177 3177 3177 3178 3178 3178 3179 3179 3178 3179 3182 3183 3182 3183 3185 3186 3187 3188 3188 3188 3188 3188 3189 3190 3191 3191 3191 3191 3192 3192
3166 3167 3169 3170 3171 3172 3173 3174 3175 3175 3174 3174 3174 3174 3173 3173 3173 3174 3174 3174 3175 3176 3177 3176 3177 3179 3181 3181 3183 3183 3184 3184 3184 3184 3184 3185 3186 3187 3187 3187 3188 3188
3167 3168 3169 3169 3169 3170 3171 3172 3172 3173 3173 3172 3172 3171 3170 3170 3170 3170 3170 3171 3171 3171 3172 3172 3173 3175 3176 3177 3178 3178 3178 3179 3179 3180 3180 3181 3182 3182 3182 3182 3183 3184
3167 3168 3168 3169 3169 3169 3170 3170 3171 3171 3171 3171 3170 3169 3169 3168 3167 3167 3168 3168 3168 3168 3168 3169 3169 3170 3170 3171 3171 3171 3172 3173 3174 3175 3176 3177 3177 3177 3177 3177 3177 3178
3166 3166 3167 3168 3168 3169 3169 3169 3169 3170 3170 3169 3168 3168 3167 3167 3166 3166 3165 3165 3166 3165 3165 3165 3165 3165 3165 3165 3164 3165 3167 3168 3169 3171 3171 3171 3172 3172 3172 3172 3173 3174
Wind_Speed
9 9 10 10 10 9 10 11 11 11 10 10 10 10 10 11 11 11 11 11 12 13 12 12 11 11 11 11 11 10 9 9 9 8 8 8 8 8 8 9 9 10
9 9 9 10 10 10 10 11 11 12 11 11 11 11 11 11 10 10 10 11 11 12 12 12 12 11 11 11 11 11 10 10 10 10 10 9 9 9 9 10 10 10
10 9 9 9 9 10 10 11 12 12 12 12 12 12 11 10 10 10 10 10 10 10 11 11 11 11 11 11 11 11 11 11 12 12 11 11 10 10 10 10 10 10
11 10 9 9 10 10 10 11 11 12 12 12 12 12 11 11 10 10 10 10 10 10 10 10 10 10 11 11 10 10 11 11 11 11 11 10 10 10 10 10 10 10
11 11 11 11 10 10 10 10 11 11 12 12 12 12 11 11 11 10 10 9 10 10 9 9 9 10 10 10 9 9 10 10 10 11 10 9 9 9 10 10 10 10
11 12 12 12 11 11 10 10 10 11 11 11 12 12 11 11 11 10 10 10 9 9 9 9 10 10 10 10 9 9 9 9 10 10 10 9 9 10 10 10 10 10
12 12 12 12 12 11 10 10 10 10 11 11 11 11 11 11 11 10 10 10 10 10 10 9 9 10 10 10 10 9 9 9 10 11 10 10 10 10 10 10 10 10
13 13 14 14 14 14 13 13 12 11 11 11 11 11 11 11 11 11 11 10 11 11 11 11 10 9 10 10 10 10 10 10 11 11 10 10 10 11 11 11 11 11
16 16 16 16 15 15 15 15 15 15 15 14 13 13 12 12 12 12 12 12 11 11 12 12 11 11 11 11 11 10 10 10 11 11 11 10 10 10 11 11 11 11
16 16 15 14 14 14 15 15 15 16 16 15 15 16 15 15 15 14 14 14 14 13 12 12 12 13 12 12 12 11 11 11 11 12 12 11 11 11 11 12 12 12
17 16 15 14 14 14 16 16 16 16 16 16 16 16 16 16 17 16 16 16 15 15 15 14 14 14 14 13 13 13 13 13 12 12 13 13 12 12 12 12 13 13
19 18 16 14 13 14 16 18 18 17 17 18 17 16 17 18 20 19 18 18 17 16 16 15 15 15 15 14 14 14 14 14 14 14 14 14 14 14 14 14 14 14
21 19 17 16 14 15 16 17 19 19 19 19 18 17 17 20 21 20 19 19 20 19 16 15 15 15 15 16 16 16 16 16 16 16 16 16 17 17 17 16 15 14
22 21 19 18 17 16 16 17 17 17 18 18 18 17 18 20 21 20 20 21 21 20 17 14 15 15 15 15 16 16 17 17 18 18 18 18 18 18 18 17 16 15
24 23 21 20 20 19 18 18 17 16 16 16 17 18 19 21 21 20 20 21 23 23 19 15 14 15 14 14 15 16 17 18 19 20 20 21 20 19 18 17 16 15
25 24 23 22 22 22 21 20 19 17 17 17 17 19 20 21 21 20 21 22 24 25 24 18 14 15 15 14 14 15 16 17 19 20 21 22 21 20 19 17 17 16
27 26 26 25 24 24 23 22 20 19 18 17 18 19 20 20 20 19 22 25 25 26 27 21 15 15 17 17 16 17 17 18 18 19 21 22 21 21 20 19 19 19
27 26 26 26 26 25 24 23 21 20 20 19 19 20 20 20 21 21 23 26 26 26 27 25 21 20 20 20 20 20 20 19 19 19 20 21 21 21 20 20 21 21
27 26 26 25 26 25 24 23 23 22 22 22 23 23 23 23 23 25 25 25 25 26 27 27 27 26 25 24 24 23 23 23 22 21 21 22 22 21 21 21 22 22
27 28 27 26 25 24 23 22 22 23 24 24 25 26 26 26 26 26 27 26 27 29 29 29 30 30 30 30 28 26 26 26 26 25 24 23 22 22 22 23 24 24
26 29 30 26 24 23 21 19 19 20 21 22 24 26 27 27 27 28 28 28 30 31 29 29 30 31 31 31 30 29 29 29 29 29 28 27 25 24 25 26 26 25
17 22 21 16 15 17 16 13 13 15 17 19 21 24 25 26 28 29 29 29 30 30 28 29 30 30 31 31 31 31 31 31 31 31 31 30 29 28 28 28 27 26
8 10 9 6 6 8 9 9 11 12 12 14 16 18 19 21 23 26 28 29 30 30 30 30 30 29 30 32 32 33 34 34 34 33 32 33 32 30 30 30 30 29
7 6 4 3 3 3 5 8 10 10 10 10 10 12 13 14 16 18 21 24 27 29 30 30 30 30 32 33 34 35 36 36 36 34 33 33 33 33 33 33 33 32
8 7 5 4 3 3 6 9 10 9 10 10 10 10 11 11 11 13 15 18 21 24 27 29 29 30 32 34 36 37 37 38 38 36 34 33 33 34 35 35 34 34
11 11 10 9 8 7 8 11 11 10 11 11 11 11 11 11 11 12 13 15 17 20 21 23 25 26 29 32 34 35 35 36 38 37 36 36 36 36 37 37 36 34
Wind_Direction
193 202 202 204 207 206 205 203 198 196 199 203 203 200 199 200 201 198 196 199 200 202 207 213 216 221 228 232 236 236 235 239 244 246 250 254 259 262 264 264 266 267
184 189 195 202 206 207 206 207 202 198 200 204 205 205 204 203 204 200 197 201 203 205 210 215 220 226 233 238 244 247 249 253 256 258 260 263 265 265 266 267 268 269
192 190 192 195 200 204 206 208 207 203 203 206 206 208 209 207 206 205 203 205 208 209 213 219 225 230 234 239 245 251 255 258 260 262 262 263 264 265 266 268 270 271
204 199 196 193 192 197 202 205 207 207 209 212 212 211 212 212 211 212 211 209 211 216 219 223 229 235 238 241 245 250 254 256 258 261 262 260 260 261 263 263 266 270
212 206 204 201 197 197 199 203 206 209 212 217 221 219 218 219 218 221 224 220 217 219 222 225 230 237 241 245 247 248 251 252 254 258 260 260 260 260 262 263 265 270
215 211 209 207 207 206 204 204 204 209 214 218 225 228 229 230 227 226 232 237 238 234 229 227 231 238 243 248 252 252 252 252 254 257 260 264 265 261 261 264 268 271
219 215 214 212 213 214 212 212 210 213 217 219 226 231 234 239 239 236 234 236 244 251 251 242 236 241 248 252 255 256 256 255 257 260 260 261 262 262 263 265 266 267
218 216 215 213 214 213 212 213 213 217 222 224 229 233 236 241 244 245 243 237 235 241 250 253 250 249 253 258 259 258 258 260 263 264 262 258 257 260 263 265 265 267
218 220 220 219 219 218 217 216 214 215 218 220 225 230 233 236 239 243 246 246 242 237 239 246 251 253 254 256 259 259 261 263 265 269 268 265 265 266 268 270 272 273
226 227 229 228 231 232 231 229 228 227 226 224 225 228 230 231 233 236 240 245 248 247 245 245 248 251 252 252 254 257 261 262 263 268 270 269 268 268 270 272 274 274
232 231 232 231 235 240 240 239 238 238 238 236 233 234 236 236 234 233 236 240 243 247 251 254 255 257 257 255 254 256 260 263 264 266 268 269 267 265 265 267 269 272
236 235 234 233 234 237 241 244 242 240 241 242 238 238 243 244 239 233 231 233 235 237 242 247 252 258 262 263 262 261 261 262 265 265 264 265 267 266 263 260 260 263
235 237 237 237 238 238 239 241 240 239 241 243 242 242 247 251 249 244 242 241 238 235 235 241 248 251 256 263 264 264 265 264 264 264 262 260 261 261 261 262 263 265
236 238 240 241 242 242 241 240 241 245 246 248 252 252 252 256 257 256 256 254 251 242 231 233 248 252 253 261 265 267 268 270 269 268 266 265 264 265 270 277 283 284
239 240 243 246 247 247 245 241 242 246 249 254 263 265 261 259 260 264 265 266 265 257 241 226 239 256 261 264 267 268 269 273 273 270 269 268 268 269 272 276 279 282
243 245 247 248 249 251 251 248 246 248 249 252 258 261 259 257 258 265 271 270 266 262 255 240 230 246 258 260 262 264 266 270 271 270 269 271 273 273 271 270 271 272
238 243 247 249 251 253 254 254 254 255 257 258 257 256 255 255 259 265 271 272 267 264 266 263 249 248 257 260 262 263 263 264 265 266 267 269 272 273 272 271 271 270
235 237 241 247 251 255 256 258 260 262 264 265 263 262 260 257 257 257 261 266 267 266 269 270 267 263 262 261 260 261 263 262 260 261 263 264 266 268 269 270 271 273
242 241 241 243 248 252 254 256 260 263 265 265 264 264 263 259 254 252 255 261 263 261 261 262 265 267 264 260 258 259 263 263 261 260 260 262 265 265 265 266 268 269
239 240 239 236 237 242 246 250 255 259 261 262 262 261 260 258 254 253 255 259 259 256 255 257 261 263 263 261 260 260 261 263 263 262 260 260 261 261 261 262 264 266
236 237 236 226 222 229 238 244 251 256 257 257 259 258 257 254 252 252 252 255 255 255 257 260 261 261 261 261 263 264 264 263 263 262 260 258 257 258 259 260 262 266
230 233 233 223 213 221 230 237 244 251 256 257 256 257 257 254 252 252 251 250 251 254 259 261 260 260 260 259 260 264 265 265 265 264 262 261 260 261 262 263 265 266
194 206 210 202 206 220 232 247 252 253 259 263 258 255 256 255 253 252 250 250 251 254 256 257 258 262 263 260 258 260 262 263 263 263 264 264 264 264 264 265 265 265
174 184 184 184 205 228 248 262 262 256 257 264 261 255 256 258 258 257 255 254 254 254 255 257 259 262 264 263 261 258 258 260 261 261 262 262 263 263 264 264 263 264
184 182 174 167 171 199 241 259 263 259 257 262 265 266 271 276 277 275 270 264 261 260 258 258 261 264 265 265 264 260 257 256 258 259 259 260 261 261 261 262 262 261
202 200 199 198 203 216 241 259 265 264 260 260 262 268 277 285 287 285 278 270 270 268 261 258 260 263 263 263 262 261 260 259 259 259 259 257 258 259 259 261 262 261